Regional Weather Roundup
Issued by NWS Midland/Odessa, TX

Skip options and go directly to product.
Home | Oldest Version | Previous Version | Current Version | All | Graphics & Text | Save Text | Print | Product List | Glossary On

Skip product version selection by date and time.   
236
ASUS44 KMAF 310710
RWRMAF
MIDLAND AREA WEATHER ROUNDUP
NATIONAL WEATHER SERVICE MIDLAND TX
200 AM CDT TUE MAY 31 2016

...IN SOUTHWEST TEXAS AND SOUTHEAST NEW MEXICO...

CITY           SKY/WX    TMP DP  RH WIND       PRES   REMARKS
ALPINE         CLOUDY    60  55  85 S5        30.13F
ANDREWS        FAIR      64  60  86 CALM      30.00F
ARTESIA        CLEAR     63  59  88 S7        29.94F
BIG SPRING     CLOUDY    65  59  81 CALM      29.97F
CARLSBAD       MOCLDY    62  58  86 W7        29.95F
DRYDEN           N/A     70  68  93 SE3       29.90S
FORT STOCKTON  NOT AVBL
GUAD PASS      NOT AVBL
HOBBS          PTCLDY    59  59 100 E7        30.02F
MARFA          LGT RAIN  59  55  87 NE9       30.07F
MIDLAND AIRPK  MOCLDY    64  60  85 CALM      29.97F
MIDLAND INTL   CLOUDY    65  60  84 NW5       29.96F
ODESSA         CLOUDY    65  63  93 NE7       29.98F
PECOS          LGT RAIN  74  51  44 S20       29.90F
PRESIDIO       TSTM      72  57  58 NE5       29.99R
SEMINOLE       CLOUDY    62  56  80 CALM      30.02F
SNYDER           N/A     66  63  89 W16       30.01S
WINK           CLOUDY    70  53  54 SE7       29.94F
$$
...OTHER STATIONS IN TEXAS...

CITY           SKY/WX    TMP DP  RH WIND       PRES   REMARKS
ABILENE        CLOUDY    75  66  73 W5        29.93R
AMARILLO       TSTM      61  50  67 W15       30.01S
AUSTIN         MOCLDY    75  73  93 S7        29.91S
BROWNSVILLE    CLOUDY    78  76  93 SE6       29.87F
CORPUS CHRISTI CLOUDY    78  75  90 SE6       29.88F
DALLAS FTW     CLOUDY    76  65  68 S7        29.89F
DEL RIO        PTCLDY    72  66  81 SE5       29.87F
EL PASO        TSTM      65  59  81 VRB3      30.01R
HOUSTON INT    MOCLDY    71  70  96 CALM      29.92F
LUBBOCK        CLOUDY    65  55  70 S18G31    29.94F
SAN ANGELO     CLOUDY    71  67  87 W5        29.95S
SAN ANTONIO    MOCLDY    76  72  87 SE9       29.91F
WACO           MOCLDY    75  69  81 S13       29.91S
WICHITA FALLS  NOT AVBL
$$
...OTHER LOCATIONS IN NEW MEXICO...

CITY           SKY/WX    TMP DP  RH WIND       PRES   REMARKS
ALAMAGORDO     CLOUDY    68  45  42 S10       29.97F
ALBUQUERQUE    CLOUDY    69  33  26 S9G18     29.99S
CANNON AFB     CLOUDY    62  58  87 S14       30.03R
CLOVIS         MOCLDY    61  54  77 S17       30.03F
HOLLOMAN AFB   CLOUDY    68  47  47 S14       29.93F
ROSWELL        CLEAR     62  50  64 E6        29.94S
RUIDOSO          N/A     50  45  81 NW3       30.12F
SANTA FE       CLOUDY    62  28  27 VRB3      30.06R
TRUTH OR CONSE PTCLDY    68  44  42 SW10      29.98R
TUCUMCARI      CLOUDY    65  43  44 S6        29.94R
$$

USA.gov is the U.S. government's official web portal to all federal, state and local government web resources and services.